Location: Kott?ru
(16.6209°N, 80.6208°E)
Time: 13:19:46
(UTC+00:00)

XW-2C - Pass Details

Date: 23 April 2024
Orbit: 437 x 450 km, 97.5° (Epoch: 21 May)

Event Time Altitude Azimuth Distance (km) Brightness Sun altitude
Rises 13:40:00 0° 200° (SSW) 2,474 ? -11.2°
Reaches altitude 10° 13:42:40 10° 223° (SW) 1,599 ? -11.9°
Maximum altitude 13:44:46 15° 262° (W) 1,298 ? -12.3°
Drops below altitude 10° 13:46:53 10° 300° (WNW) 1,595 ? -12.8°
Sets 13:49:33 0° 323° (NW) 2,464 ? -13.4°
